COSMOS 2251 DEB, 35014

Orbit data source: Space-Track

COSMOS 2251 DEB, 35014 is space debris in LEO originally from a launch on Wed, 16 Jun 1993 UTC launched from the Plesetsk Missile And Space Complex (PKMTR). The debris from Iridium 33, an American commercial communications satellite, has been tracked extensively since its accidental collision with the defunct Russian satellite Cosmos 2251 in 2009. This event, occurring at high speed in low Earth orbit (LEO), generated thousands of pieces of space debris, significantly increasing the risk of further collisions. The Iridium 33 debris cloud has impacted space traffic management and orbital debris mitigation strategies, making it a subject of ongoing study in space situational awareness.

Loading next visibility...
Identifier
35014, 1993-036AGB
Orbit
LEO
Country
Flag of CISCIS
Related business
Manufacturer
Unknown
Mission
Spacecraft
Bus & Motor
Unknown
Mass
Unknown
Launch date (UTC)
1993-06-16 (33 years ago)
Launch vehicle
Unknown
Launch site
Plesetsk Missile And Space Complex (PKMTR)
Object type
Payload
Rocket body
Debris
Shape & HBR
Unknown shape, 0.1 m
Radar Cross Section
Small (<0.1 m²)

Expand to show TLE details & history
Last TLE update: 1 day ago

TLE from 1 day ago
0 COSMOS 2251 DEB
1 35014U 93036AGB 26264.12157263  .00006111  00000-0  80123-3 0  9997
2 35014  73.9952 207.5370 0010663 279.8619  80.1353 14.80501397755096
Epoch: 2026-09-21T02:55Z
TLE epoch observation values (Epoch: 2026-09-21T02:55:03.875Z)
Latitude
-0.00003°
Longitude
163.7649°
Altitude
629.132 km
Speed
7.545 km/s
True Right ascension
13h 50m 08s
True Declination
0° 00' 00"
Sunlit
Object was in daylight at epoch
Visualization orbit readout
Latitude
Unknown
Longitude
Unknown
Altitude
Unknown
Speed
Unknown
Apparent Right ascension
Unknown
Apparent Declination
Unknown
Sunlit
N/A
Visualization observer readout
Local Sidereal Time
00:55:48
Azimuth
Unknown
Elevation
Unknown
Doppler factor
Unknown
Orbital elements
Apogee altitude
632.788 km
Perigee altitude
617.853 km
Semi-major axis
7,003.457 km
Eccentricity
0.00107
Inclination
73.9952°
RAAN
207.537°
Arg. of periapsis
279.8619°
True anomaly
80.25571°
Mean anomaly
80.1353°
Eccentric anomaly
80.1955°
Mean motion
3.70318 °/min
Orbital period
97.21 mins
BSTAR
0.00080123

Documentation

Showing up to 5 results
|